ホームページへジャンプ


OAA彗星課報告<2006年11月6日号>

177P/Barnard 2 の軌道 (村岡健治氏)

 177P/Barnard 2に若干ですが非重力運動の影響がでてきたようです。
 今回帰の観測値数がたいへん多くなってきたため、観測の選択は、残差値で、2006年は1".0までを選択、1889年は5".4までを選択して計算しました。
 1889年から過去の2公転、次回帰の軌道もご覧ください。
(村岡健治)

 Comet 177P/Barnard 2 


   The following improved orbital elements by Kenji Muraoka, 
  are from 1683 observations 1889 June 24  to  2006 Oct. 28, 
  including 8 Planets, Moon and 3 minor planets perturbations 
  and non-gravitational effect of style II.  
   The mean residual is +/- 0.63 arc seconds.


      Epoch  =  2006 Aug. 13.0  TT        JDT = 2453960.5
          T  =  2006 Aug. 28.687906       +/- 0.000072 (m.e.) TT
       Peri. =   60.459950                +/- 0.000137
       Node  =  272.066493                +/- 0.000021   (2000.0)
       Incl. =   31.217428                +/- 0.000039
          q  =    1.10721976              +/- 0.00000112 AU
          e  =    0.95437573              +/- 0.00000010
          a  =   24.26821866              +/- 0.00000245 AU
          n゜ =    0.008244175             +/- 0.000000001
          P  =  119.552                   +/- 0.00001813  years
         A1  =   +0.841                   +/- 0.061
         A2  =   -0.00651                 +/- 0.00059


          T  =  1889 June 21.23145  TT    Epoch  =  1889 June  7.0  TT
       Peri. =   60.14480                     e  =    0.9539643
       Node  =  272.54492    (2000.0)         a  =   23.9596965 AU
       Incl. =   31.22032                     n゜ =    0.008403924
          q  =    1.1030010 AU                P  =  117.279 years


T 1663 May 29.48971 TT                                  Muraoka 
q   1.0919235            (2000.0)            P               Q
n   0.00875067     Peri.   59.79667     +0.76516204     +0.38031211
a  23.3225101      Node   273.22443     -0.60161892     +0.70972077
e   0.9531816      Incl.   31.35458     +0.22930707     +0.59300853
P 112.63


Epoch 1777 Jan. 25.0 TT = JDT 2370120.5  
T 1777 Feb. 7.60859 TT                                  Muraoka 
q   1.0948486            (2000.0)            P               Q
n   0.00869350     Peri.   60.17893     +0.76573340     +0.38017078
a  23.4246398      Node   272.92131     -0.60026265     +0.71207433
e   0.9532608      Incl.   31.29505     +0.23094827     +0.59027140
P 113.37


Epoch 2127 Apr. 21.0 TT = JDT 2498040.5  
T 2127 Apr. 14.56492 TT                                 Muraoka 
q   1.1207302            (2000.0)            P               Q
n   0.00782848     Peri.   60.47636     +0.76026994     +0.39400327
a  25.1198949      Node   271.82260     -0.60900969     +0.70896600
e   0.9553848      Incl.   31.11389     +0.22604605     +0.58491763
P 125.90


Residuals in seconds of arc
*** /1889  O-C.          060723 J76  0.1-  0.6+   060817 850  0.7+  0.2- 
890624 662  1.4-  3.2+   060723 J76  0.2+  0.4+   060817 213  0.4+  0.4+ 
890625 662  3.2-  0.7-   060723 J76  0.2+  0.2+   060817 213  0.3-  0.3+ 
890625 045 (5.9-  5.4-)  060723 G96  0.4-  0.3+   060817 213  0.4+  0.3- 
890626 532 (5.9- 12.4-)  060723 G96  0.4-  0.3+   060817 A97  0.6+  0.7+ 
890626 045 (9.5+  8.6-)  060723 G96  0.3-  0.5+   060817 A97  1.2+  1.7- 
890626 522  5.4-  0.6-   060723 G96  0.3-  0.2+   060817 A97  0.4-  0.2+ 
890626 662  2.7-  1.3+   060723 H45  0.4-  0.1+   060817 A97  0.2-  0.1- 
890626 532(10.0-  7.1+)  060723 H45  0.2-  0.2+   060817 A97  0.6+  0.8- 
890627 045 (5.8- 10.2-)  060723 H45  0.3-  0.1+   060817 232  0.1-  0.0  
890627 662  2.9+  0.4-   060723 H45  0.3-  0.1+   060817 232  0.2-  0.0  
890628 020 (5.9-  2.0+)  060723 H45  0.2-  0.2+   060817 232  0.1+  0.2- 
890628 437  4.6+  2.4+   060723 232  0.2+  0.2-   060817 442  0.5-  0.9- 
890628 045  2.6+  3.0-   060723 232  0.2+  1.0-   060817 442  0.1-  0.4- 
890629 020 (8.1-  0.3+)  060723 232  0.3-  0.3+   060817 J76  0.1+  0.0  
890630 662  5.1+  0.9-   060723 A11  0.0   1.0+   060817 J76  0.0   0.1+ 
890701 662  3.6+  2.1+   060723 A11  0.3+  1.2+   060817 J76  0.1+  0.3+ 
890702 662  2.2+  1.0+   060723 A11  0.7+  0.4+   060817 J70 (3.5-  1.1+)
890703 662 (9.6+  1.7-)  060723 A11  0.2+  1.6+   060818 J70 (2.6+  4.3+)
890704 522 (9.3-  3.1-)  060723 A11 (0.3+  2.4+)  060818 J70 (2.4-  0.8+)
890704 007  4.5-  2.3+   060723 A11  0.0   0.6+   060818 J70 (1.4+  6.0+)
890704 662  5.0+  0.7+   060723 504  0.2+  0.1+   060818 J70  0.0   1.7+ 
890705 662  3.5+  0.2-   060723 504  0.2+  0.1+   060818 J70 (1.0-  4.6+)
890705 045(12.0+  1.9+)  060723 504  0.2+  0.4+   060818 J70 (0.1-  4.5+)
890706 767  1.9-  1.2+   060723 504  0.5+  0.1+   060818 J70 (0.7-  4.1+)
890706 662  2.6+  0.4-   060723 504  0.4+  0.2+   060818 J70 (1.0+  3.5+)
890708 662  4.1+  3.6+   060723 504  0.1+  0.2+   060818 J70 (4.4+  1.6+)
890710 662  0.3+  2.6+   060723 504  0.1+  0.3+   060818 J70  0.6+  0.8+ 
890711 662 (9.4+  3.8-)  060723 504  0.3+  0.3+   060818 D35  0.1+  1.7+ 
890801 662 (4.8+  8.3+)  060723 504  0.4+  0.4+   060818 461  0.7-  0.7+ 
890801 045 (7.4-  9.4-)  060723 504  0.4+  0.1+   060818 461  0.0   0.0  
890807 662  4.4+  4.3+   060723 504  0.3+  0.3+   060818 461  0.4-  0.1+ 
*** /2006  O-C.          060723 504  0.2+  0.4+   060818 461  0.0   0.3+ 
060623 704  0.6+  0.3+   060723 I77  0.1+  0.0    060818 048  0.1+  0.2- 
060623 704  0.1+  0.7-   060723 I77  0.3-  0.2-   060818 048  0.5-  0.2- 
060623 704  0.5+  0.0    060723 I77  0.0   0.0    060818 233 (3.8-  1.3+)
060623 J87  0.1+  0.3-   060723 I77  0.2+  0.6-   060818 048  0.4-  0.9- 
060623 J87  0.1+  0.3+   060724 704 (0.8+  5.0-)  060818 048  0.1-  1.1- 
060623 J87  0.2+  0.3+   060724 704  0.9+  1.7-   060818 235  0.1+  0.4- 
060623 118  0.2-  0.5-   060724 704 (1.3+  2.1-)  060818 233 (4.1-  1.9+)
060623 118  0.3+  0.6+   060724 704 (1.0+  3.8-)  060818 233 (4.3-  1.9+)
060623 J87  0.3+  0.6+   060724 704  1.5+  1.2-   060818 138  0.9+  0.9- 
060623 118  0.2-  0.4+   060724 H45  0.1-  0.2-   060818 138  0.4+  0.6- 
060623 118  0.1-  0.6-   060724 H45  0.2-  0.1-   060818 138  0.4+  0.3- 
060623 118  0.2+  0.2-   060724 H45  0.0   0.2-   060818 138  0.1+  0.2+ 
060623 176  0.3+  0.5+   060724 H45  0.1-  0.2-   060818 213  0.1+  0.4- 
060623 176  0.1+  0.1+   060724 H45  0.2-  0.0    060818 213  0.2+  0.5- 
060623 176  0.5-  0.4+   060724 585  0.0   0.9+   060818 213  0.3-  0.0  
060623 204  0.2-  0.3+   060724 585  0.0   0.5+   060818 138  0.1+  0.2+ 
060623 204  0.4+  0.3+   060724 585  0.0   0.4+   060818 232  0.4+  0.3- 
060623 204  0.3-  0.1-   060724 213  0.4-  0.5+   060818 232  0.1-  0.1+ 
060623 204  0.2+  0.3+   060724 585  0.1+  0.2+   060818 232  0.1-  0.1- 
060624 I77  0.1-  0.2-   060724 585  0.1+  0.1+   060818 939  0.1+  0.2- 
060624 I77  0.5-  0.5-   060724 213  0.3+  0.6+   060818 939  0.0   0.4- 
060624 I77  0.1-  0.1-   060724 213  0.2-  0.7+   060818 939  0.1-  0.4- 
060624 734  0.1-  0.4+   060724 J97  0.1-  0.7-   060818 A01  0.1-  0.3- 
060624 734  0.2-  0.3+   060724 J97  0.0   0.7-   060818 A01  0.0   0.2- 
060624 734  0.0   0.2+   060724 J97  1.1+  1.1-   060818 A01  0.6+  0.0  
060624 734  0.2-  0.3+   060724 A11 (2.9+  0.7-)  060818 473  0.4+  0.6- 
060624 734  0.1+  0.3+   060724 A11  1.9+  0.0    060818 473  1.1-  0.3+ 
060624 704  0.0   0.2+   060724 A32  0.1-  0.5-   060818 J70  0.5-  0.6+ 
060624 704  0.1-  0.3+   060724 J76  0.3+  0.1+   060818 J70  1.3+  0.5+ 
060624 704  0.0   0.8-   060724 J76  0.3+  0.2+   060818 J70  0.1+  0.7+ 
060624 H06  1.4-  1.4+   060724 A32  0.3-  0.3-   060818 J70 (0.9+  3.0+)
060624 H06  0.6+  1.4+   060724 A11  0.3+  0.9+   060818 J70  0.0   0.8+ 
060624 H06  0.1-  0.6+   060724 J76  0.1+  0.5+   060818 J70  0.1-  0.1+ 
060624 428  0.7-  1.4-   060724 A32  0.2-  0.0    060818 J70  0.4-  0.2+ 
060624 428  0.7-  0.7-   060724 A11  0.6+  1.2+   060818 J70  0.8-  0.8+ 
060624 428  0.2-  0.5-   060724 A32  0.1-  0.5-   060818 J70  0.6-  1.0+ 
060625 H06  0.1+  0.4+   060724 A11  0.2+  0.6+   060818 J70  0.4-  1.1+ 
060625 H06  0.1+  0.1+   060724 A32  0.2-  0.5-   060818 J70  0.9-  0.6+ 
060625 H06 (1.6+  2.8+)  060724 A11  0.6-  1.6+   060818 J70  1.3+  0.3+ 
060625 H06  0.4-  0.2-   060724 A11 (0.5-  3.1+)  060818 J70  0.3-  0.7+ 
060625 H06  0.6-  0.1-   060724 939  0.0   0.0    060818 J70  0.1-  0.7+ 
060625 H06  0.3+  0.1-   060724 939  0.1-  0.0    060818 J70  1.7+  0.6+ 
060625 H06  0.2-  0.8-   060724 939  0.1+  0.2-   060819 J70  1.2-  0.9+ 
060625 423  0.8+  0.2+   060725 349  1.0-  1.0-   060819 J70 (2.3+  0.5+)
060625 423  0.5+  0.1-   060725 349  1.0-  0.8-   060819 J70  0.5+  0.5+ 
060625 213  1.0-  0.0    060725 A32  0.0   0.4-   060819 J70 (1.5-  2.1+)
060625 213  0.9-  0.1-   060725 A32  0.1+  0.6-   060819 J70  0.5-  1.4+ 
060625 213  1.2-  0.1+   060725 939  0.3-  0.3-   060819 J70  0.3+  1.1+ 
060625 A77  0.4-  0.2+   060725 939  0.1+  0.4-   060819 J70 (3.2-  3.2+)
060625 A77  0.9-  0.6+   060725 A32  0.0   0.6-   060819 J70  0.2+  0.9+ 
060625 A77  0.1-  0.8+   060725 939  0.1-  0.5-   060819 J70  0.5+  0.4+ 
060625 A77  1.1-  1.3+   060725 A32  0.0   0.6-   060819 J70 (0.2-  2.3+)
060625 A77  0.7+  0.6+   060725 A32  0.1-  0.8-   060819 J70  1.0+  1.2+ 
060625 130  0.6-  0.4+   060726 850  0.5-  1.7+   060819 J70 (1.3+  2.1+)
060625 A77  0.8+  0.1-   060726 850  0.2+  0.8-   060819 J70  0.8+  1.1+ 
060625 A77  0.5-  0.5+   060726 850  0.1+  0.3-   060819 J70 (1.8+  3.1+)
060625 A77  1.3+  1.5+   060726 850  0.1-  0.6+   060819 J70 (5.1+  6.1+)
060625 A77 (0.2-  2.4+)  060726 850  0.1+  0.6+   060819 J70 (0.5-  8.8+)
060625 130  0.6-  1.0+   060726 850  0.1+  0.6-   060819 J70 (0.4-  9.3+)
060626 104  0.5-  0.2+   060726 850  0.4-  0.7-   060819 J70  1.3-  0.8- 
060626 104  0.2+  0.7+   060726 850 (0.4+  2.1-)  060819 461  0.4-  0.0  
060626 213  0.6-  0.6+   060726 850 (0.0   2.1-)  060819 461  0.1-  0.2+ 
060626 213  0.5-  0.7+   060726 850 (0.3+  2.4-)  060819 461  0.3-  0.4+ 
060626 213  0.2-  1.0+   060726 850  0.1-  0.6+   060819 048  0.4+  0.2- 
060626 104 (2.6+  0.7+)  060726 850 (0.5+  3.6-)  060819 048  0.5+  0.2- 
